Regional Weather Roundup
Issued by NWS

Home | Current Version | Previous Version | Text Only | Print | Product List | Glossary Off
Versions: 1 2 3 4 5 6 7 8 9 10 11 12 13 14 15 16 17 18 19 20 21 22 23 24 25 26 27 28 29 30 31 32 33 34 35 36 37 38 39 40 41 42 43 44 45 46 47 48 49 50

000
ASUS43 KLOT 291008
RWRIL

ILLINOIS REGIONAL WEATHER ROUNDUP
NATIONAL WEATHER SERVICE CHICAGO/ROMEOVILLE IL
500 AM CDT FRI MAY 29 2015

NOTE: "FAIR" INDICATES FEW OR NO CLOUDS BELOW 12,000 FEET WITH NO
SIGNIFICANT WEATHER AND/OR OBSTRUCTIONS TO VISIBILITY.

* THESE STATIONS ARE NOT UNDER NWS QUALITY CONTROL. THEY ALSO MAY NOT
  REPORT WEATHER SUCH AS PRECIPITATION OR FOG.

ILZ001-002-007-009-015-016-024-291100-
NORTHWEST ILLINOIS

CITY           SKY/WX    TMP DP  RH WIND       PRES   REMARKS
MOLINE         CLOUDY    68  63  84 S5        29.96F
STERLING*      MOCLDY    66  61  82 SE5       29.99F
SAVANNA*       MOCLDY    64  58  79 E3        29.97S
$$

ILZ003-004-008-010-011-017-018-291100-
NORTH CENTRAL ILLINOIS

CITY           SKY/WX    TMP DP  RH WIND       PRES   REMARKS
ROCKFORD       CLOUDY    65  57  75 SE7       30.01F
FREEPORT*      MOCLDY    63  59  87 CALM      30.01S
ROCHELLE*      CLOUDY    63  60  89 S6        30.01S
DE KALB*       CLOUDY    62  56  81 S6        30.03S
PERU*          CLOUDY    67  62  83 S7        30.02R
$$

ILZ005-006-012>014-019>023-291100-
NORTHEAST ILLINOIS

CITY           SKY/WX    TMP DP  RH WIND       PRES   REMARKS
CHICAGO-OHARE  CLOUDY    65  60  84 SE6       30.01F
CHICAGO-MIDWAY CLOUDY    72  63  73 SE6       30.02F
AURORA         CLOUDY    66  58  75 SE7       30.02F
LANSING*       CLOUDY    66  62  85 S3        30.04F
JOLIET*        CLOUDY    69  64  83 S3        30.02F
WAUKEGAN       CLOUDY    58  55  90 CALM      30.01F
DUPAGE AIRPORT CLOUDY    66  59  78 SE6       30.01F
KANKAKEE*      MOCLDY    69  64  84 SE8       30.04F
WHEELING       CLOUDY    65  59  81 SE6       30.03F
MORRIS*        CLOUDY    67  62  83 S5        30.01S
ROMEOVILLE*    CLOUDY    66  61  82 S7        30.02F
NORTHERLY ISL    N/A     68  59  73 E2          N/A
$$

LMZ740>746-291100-
SOUTHERN LAKE MICHIGAN

STATION/POSITION SKY/WX   TEMP    WIND        PRES    VSBY  WAVE
                          AIR SEA DIR/SP/G                  HT/PER
                          (F)     (DEG/KT/KT) (MB)    (MI)  (FT/S)
SOUTHERN BUOY              47 38  150/ 14/ 14 1017.4F         1
HARRISON CRIB              68     170/ 11/ 12   N/A
BURNHAM HARBOR             63     140/  4/  7   N/A
CALUMET HARBOR                    170/  6/  7   N/A
BURNS HARBOR               71     160/  7/ 11 1018.6F
MICHIGAN CITY              70     130/  9/ 11   N/A
MICHIGAN CITY 6N           65 55  140/  6/  8   N/A           0
ST. JOSEPH                 63 57  150/  8/  8   N/A           1
$$

ILZ025>027-034>036-040-047-049-050-058-095>099-291100-
WEST-CENTRAL ILLINOIS

CITY           SKY/WX    TMP DP  RH WIND       PRES   REMARKS
QUINCY         LGT RAIN  68  65  90 S13G22    29.96S FOG
GALESBURG*     CLOUDY    66  63  88 SE5       29.97F
MACOMB*        MOCLDY    66  65  94 S3        30.00R
JACKSONVILLE*  MOCLDY    71  66  85 SE9       29.98F
PITTSFIELD*    CLOUDY    69  65  88 S6        29.98S
$$

ILZ028>032-037-038-041>044-048-051>054-059>061-291100-
CENTRAL ILLINOIS

CITY           SKY/WX    TMP DP  RH WIND       PRES   REMARKS
PONTIAC        CLOUDY    70  65  86 S8        30.03S
BLOOMINGTON    MOCLDY    66  65  97 S10       30.03F FOG
DECATUR        PTCLDY    67  64  90 SE7       30.03F
PEORIA         MOCLDY    71  64  78 S6        30.00S
LACON*         CLOUDY    67  63  87 SE7       30.00S
LINCOLN*       CLOUDY    67  65  90 SE3       30.00S
SPRINGFIELD    PTCLDY    68  65  90 SE7       30.00F
TAYLORVILLE    PTCLDY    64  63  94 SE6       30.02S
$$

ILZ033-039-045-046-055>057-062-063-291100-
EAST-CENTRAL ILLINOIS

CITY           SKY/WX    TMP DP  RH WIND       PRES   REMARKS
CHAMPAIGN      MOCLDY    67  64  90 SE6       30.05S
DANVILLE*      PTCLDY    65  63  92 SE6       30.04F
RANTOUL*       MOCLDY    68  65  90 SE3       30.05F
PARIS*         PTCLDY    67  64  91 E3        30.06F
$$

ILZ079-100>102-291100-
SOUTHWEST ILLINOIS

CITY           SKY/WX    TMP DP  RH WIND       PRES   REMARKS
ALTON          MOCLDY    67  67 100 SE3       30.01R
BELLEVILLE     MOCLDY    67  66  99 SE5       29.99S
CAHOKIA*       MOCLDY    70  65  84 CALM      30.00R
SPARTA*        PTCLDY    67  65  93 SE3       30.02S
$$

ILZ064>066-069>071-074>076-080>082-084>086-088>090-092>094-291100-
SOUTH-CENTRAL ILLINOIS

CITY           SKY/WX    TMP DP  RH WIND       PRES   REMARKS
CARBONDALE     CLEAR     64  63  96 SE6       30.03R
CAIRO*         CLEAR     65  65 100 CALM      30.03S FOG
EFFINGHAM*     PTCLDY    66  63  89 E3        30.06R
MARION         PTCLDY    68  66  94 SE5       30.04S
MT. VERNON     CLEAR     61  57  88 CALM      30.05S
CENTRALIA*     PTCLDY    65  63  93 CALM      30.03S FOG
SALEM*         CLEAR     69  65  85 SE6       30.03F
METROPOLIS*      N/A     66  66 100 CALM      30.04R FOG
$$

ILZ067-068-072-073-078-083-087-091-291100-
SOUTHEAST ILLINOIS

CITY           SKY/WX    TMP DP  RH WIND       PRES   REMARKS
LAWRENCEVILLE  CLEAR     65  62  90 E6        30.06S
FLORA*         CLEAR     64  62  95 CALM      30.04S
FAIRFIELD*     CLEAR     65  64  96 CALM      30.04R
HARRISBURG*    CLEAR     64  64 100 CALM      30.06R
ROBINSON*      CLEAR     65  63  94 SE6       30.07F
CARMI*         CLEAR     64  61  88 CALM      30.05R
$$

ABBREVIATIONS USED IN REMARKS
   TC - TEMPERATURE IN CELSIUS
  WCI - WIND CHILL INDEX
   HX - HEAT INDEX
  VSB - VISIBILITY
$$



USA.gov is the U.S. government's official web portal to all federal, state and local government web resources and services.